Weather History for Millinocket, ME

Change the Weather History Date:

Friday, October 26, 2012

  Actual Average Record
Temperature  
Mean Temperature 44 °F 42 °F  
Max Temperature 58 °F 51 °F 78 °F (1963)
Min Temperature 30 °F 34 °F 19 °F (1993)
Degree Days  
Heating Degree Days 21 23  
Month to date heating degree days 425 488  
Since 1 July heating degree days 651 816  
Cooling Degree Days 0 0  
Month to date cooling degree days 0 0  
Year to date cooling degree days 443 268  
Moisture  
Dew Point 38 °F    
Average Humidity 77    
Maximum Humidity 96    
Minimum Humidity 57    
Precipitation  
Precipitation 0.00 in 0.13 in 2.40 in (2008)
Month to date precipitation 3.98 3.51  
Year to date precipitation 32.26 34.16  
Sea Level Pressure  
Sea Level Pressure 30.22 in    
Wind  
Wind Speed 1 mph (SE)    
Max Wind Speed 8 mph    
Max Gust Speed 10 mph    
Visibility 10 miles    
Events      
T = Trace of Precipitation, MM = Missing Value Source: NWS Daily Summary

Daily Weather History Graph

Daily Weather History Graph

Search for Another Location

Airport:

Trip Planner

Search our weather history database for the weather conditions in past years. The results will help you decide how hot, cold, wet, or windy it might be!

Date:

Astronomy

Oct. 26, 2012 Rise Set
Actual Time 7:06 AM EDT 5:29 PM EDT
Civil Twilight 6:36 AM EDT 6:00 PM EDT
Nautical Twilight 6:01 AM EDT 6:35 PM EDT
Astronomical Twilight 5:26 AM EDT 7:09 PM EDT
Moon 3:50 PM EDT (10/26) 3:51 AM EDT (10/26)
Length of Visible Light 11h 24m
Length of Day
10h 23m
Waxing Gibbous, 91% of the Moon is Illuminated
Oct 26
Waxing Gibbous
Oct 29
Full
Nov 6
Last Quarter
Nov 13
New
Nov 20
First Quarter

Hourly Weather History & Observations

Time (EDT) Temp. Windchill Dew Point Humidity Pressure Visibility Wind Dir Wind Speed Gust Speed Precip Events Conditions
2:53 AM 30.0 °F - 28.0 °F 92% 30.28 in 10.0 mi Calm Calm - N/A   Clear
3:53 AM 30.0 °F - 28.0 °F 92% 30.27 in 10.0 mi Calm Calm - N/A   Clear
4:53 AM 30.9 °F - 28.9 °F 92% 30.27 in 10.0 mi Calm Calm - N/A   Scattered Clouds
5:53 AM 30.0 °F - 28.0 °F 92% 30.27 in 10.0 mi Calm Calm - N/A   Clear
6:27 AM 30.2 °F - 28.4 °F 93% 30.24 in 10.0 mi Calm Calm - N/A   Partly Cloudy
6:53 AM 30.9 °F 27.5 °F 28.9 °F 92% 30.28 in 10.0 mi East 3.5 mph - N/A   Clear
7:53 AM 32.0 °F - 30.0 °F 92% 30.28 in 9.0 mi Calm Calm - N/A   Scattered Clouds
8:53 AM 37.0 °F - 32.0 °F 82% 30.28 in 10.0 mi Calm Calm - N/A   Clear
9:53 AM 43.0 °F - 35.1 °F 74% 30.27 in 10.0 mi Calm Calm - N/A   Clear
10:53 AM 48.9 °F - 39.0 °F 69% 30.26 in 10.0 mi SE 4.6 mph - N/A   Clear
11:53 AM 53.1 °F - 41.0 °F 64% 30.24 in 10.0 mi SSE 4.6 mph - N/A   Clear
12:53 PM 55.0 °F - 42.1 °F 62% 30.22 in 10.0 mi Variable 5.8 mph - N/A   Clear
1:53 PM 57.0 °F - 43.0 °F 59% 30.20 in 10.0 mi Calm Calm - N/A   Clear
2:53 PM 57.0 °F - 44.1 °F 62% 30.19 in 10.0 mi SE 6.9 mph - N/A   Clear
3:53 PM 57.0 °F - 45.0 °F 64% 30.19 in 10.0 mi Variable 3.5 mph - N/A   Clear
4:53 PM 55.9 °F - 46.0 °F 69% 30.17 in 10.0 mi Calm Calm - N/A   Clear
5:53 PM 52.0 °F - 46.0 °F 80% 30.17 in 10.0 mi SE 3.5 mph - N/A   Clear
6:53 PM 50.0 °F - 45.0 °F 83% 30.18 in 10.0 mi Calm Calm - N/A   Clear
7:53 PM 48.0 °F - 44.1 °F 86% 30.17 in 10.0 mi Calm Calm - N/A   Clear
8:53 PM 45.0 °F - 43.0 °F 93% 30.17 in 8.0 mi Calm Calm - N/A   Clear
9:53 PM 44.1 °F - 42.1 °F 93% 30.15 in 6.0 mi Calm Calm - N/A   Clear
10:53 PM 43.0 °F - 41.0 °F 93% 30.14 in 7.0 mi Calm Calm - N/A   Clear
11:53 PM 42.1 °F - 39.9 °F 92% 30.15 in 8.0 mi Calm Calm - N/A   Mostly Cloudy